Regional Weather Roundup
Issued by NWS State College, PA

Home | Current Version | Previous Version | Graphics & Text | Print | Product List | Glossary On
Versions: 1 2 3 4 5 6 7 8 9 10 11 12 13 14 15 16 17 18 19 20 21 22 23 24 25 26 27 28 29 30 31 32 33 34 35 36 37 38 39 40 41 42 43 44 45 46 47 48 49 50
000
ASUS41 KCTP 011910
RWRCTP

REGIONAL WEATHER ROUNDUP
NATIONAL WEATHER SERVICE STATE COLLEGE PA
300 PM EDT WED OCT 01 2014

Note: "fair" indicates few or no clouds below 12,000 feet with no
significant weather and/or obstructions to visibility.

* = STATION THAT DOES NOT REPORT PRECIPITATION /E.G. RAIN...SNOW...ETC/
    THUNDER OR FOG.

PAZ002>004-007>009-013>016-020>023-029>032-012000-
WESTERN PENNSYLVANIA

CITY           SKY/WX    TMP DP  RH WIND       PRES   REMARKS
ERIE           MOSUNNY   68  58  70 NE8       30.03F
MEADVILLE      PTSUNNY   69  56  62 SW3       30.03S
FRANKLIN*      PTSUNNY   70  55  60 SE7       30.04F
NEW CASTLE       N/A     67  58  72 CALM      30.04F
BEAVER COUNTY  CLOUDY    66  55  68 CALM      30.03F
BUTLER*        MOSUNNY   66  55  68 SW6       30.05S
PITTSBURGH INT CLOUDY    62  56  80 CALM      30.03F
PITTSBURGH     PTSUNNY   67  56  67 VRB3      30.02F FOG
INDIANA*       SUNNY     73  52  46 S7G13     30.05S
LATROBE        MOSUNNY   73  57  56 VRB6      30.01F
WASHINGTON CO* CLOUDY    63  55  77 CALM      30.05S
$$

PAZ004>006-010>012-017>019-024>028-033>037-041-042-045-046-049>053-012000-
CENTRAL PENNSYLVANIA

CITY           SKY/WX    TMP DP  RH WIND       PRES   REMARKS
BRADFORD       MOSUNNY   66  53  63 MISG      30.06S
DUBOIS         MOSUNNY   68  54  60 VRB6      30.03F
CLEARFIELD     PTSUNNY   69  56  62 E6        30.04F
JOHNSTOWN      SUNNY     67  49  52 S6        30.04F
ALTOONA        MOSUNNY   66  57  72 E3        30.05F
STATE COLLEGE  PTSUNNY   66  59  77 CALM      30.04F
WILLIAMSPORT   CLOUDY    69  57  65 VRB3      30.02F
SELINSGROVE    SUNNY     70  58  65 CALM      30.04F
FT INDIANTOWN  SUNNY     71  60  67 VRB2      30.03F
CAPITAL CITY   MOSUNNY   72  55  55 CALM      30.03S
HARRISBURG     PTSUNNY   71  59  65 S5        30.02F
YORK           PTSUNNY   70  58  65 CALM      30.03F
$$

PAZ038>040-043-044-047-048-054-055-060>062-067>071-012000-
EASTERN PENNSYLVANIA

CITY           SKY/WX    TMP DP  RH WIND       PRES   REMARKS
SCRANTON       PTSUNNY   71  53  52 NE7       30.02F
MOUNT POCONO   CLOUDY    63  53  70 E12       30.06F
ALLENTOWN      MOSUNNY   71  55  56 NE7       30.02F
QUAKERTOWN*    CLOUDY    70  57  64 NE5       30.03F
READING        PTSUNNY   73  55  53 W3        30.01F
LANCASTER      PTSUNNY   70  57  63 N5        30.02F
COATESVILLE    CLOUDY    70  57  64 N6        30.03F
POTTSTOWN      PTSUNNY   72  55  55 N6        30.03S
BLUE BELL      CLOUDY    72  57  60 NE3       30.01S
DOYLESTOWN     CLOUDY    68  57  68 VRB5      30.02F
WILLOW GROVE   NOT AVBL
NORTH PHILA    CLOUDY    70  56  61 NE10      30.03S
PHILADELPHIA   PTSUNNY   73  57  57 NE8       30.01S
$$



USA.gov is the U.S. government's official web portal to all federal, state and local government web resources and services.